User: anonymous   Login
Location: *
(45.1333°S, 169.6333°W)
Time: 09:23:06
(UTC+00:00)
Language:

Cosmos 1302 Rocket - Orbit

View from above orbital plane
View from above orbital plane
View from above satellite
View from above satellite

Ground track
Ground track

The orbit data is extracted from the following two-line orbital elements,

1 12792U 81084B   22224.79413376  .00000125  00000-0  50161-4 0  9999
2 12792  74.0302 169.1946 0013700 352.6545   7.4406 14.37724843145268
Epoch (UTC): 12 August 2022 19:03:33
Eccentricity: 0.0013700
inclination: 74.0302°
perigee height: 756 km
apogee height: 776 km
right ascension of ascending node: 169.1946°
argument of perigee: 352.6545°
revolutions per day: 14.37724843
mean anomaly at epoch: 7.4406°
orbit number at epoch: 14526

The dashed part of the orbit path shows where the satellite is in the earth's shadow,  

DLR